Location: Quaker Farms
(41.4276°N, 73.1557°W)
Time: 10:48:05
(UTC+00:00)

A-11 Canister half - All Passes

Search period start: 13 June 2021 00:00
Search period end: 23 June 2021 00:00
Orbit: 1527 x 1681 km, 47.3° (Epoch: 12 June)

Date Brightness Start Highest point End Pass type
(mag) Time Alt. Az. Time Alt. Az. Time Alt. Az.
13 Jun - 03:55:56 10° SSW 04:04:09 36° SE 04:12:17 10° ENE visible
13 Jun - 05:59:03 10° WSW 06:08:26 90° NW 06:17:49 10° ENE visible
13 Jun - 08:04:51 10° W 08:14:04 61° N 08:23:24 10° ENE visible
13 Jun - 10:10:32 10° WNW 10:19:55 78° NNE 10:29:29 10° ESE daylight
13 Jun - 12:15:46 10° WNW 12:24:37 48° SW 12:33:41 10° SSE daylight
13 Jun - 14:25:24 10° WSW 14:27:54 11° WSW 14:30:25 10° SW daylight
14 Jun - 03:34:28 10° SSW 03:42:34 34° SE 03:50:35 10° ENE visible
14 Jun - 05:37:24 10° WSW 05:46:47 88° SSE 05:56:09 10° ENE visible
14 Jun - 07:43:09 10° W 07:52:22 62° N 08:01:41 10° ENE visible
14 Jun - 09:48:52 10° WNW 09:58:14 77° NNE 10:07:47 10° ESE daylight
14 Jun - 11:54:05 10° WNW 12:03:00 50° SW 12:12:07 10° SSE daylight
14 Jun - 14:02:57 10° W 14:06:20 12° WSW 14:09:45 10° SW daylight
15 Jun - 03:13:01 10° S 03:20:59 32° SE 03:28:51 10° ENE visible
15 Jun - 05:15:45 10° WSW 05:25:08 86° SSE 05:34:29 10° ENE visible
15 Jun - 07:21:26 10° W 07:30:41 62° N 07:39:58 10° ENE visible
15 Jun - 09:27:12 10° WNW 09:36:33 75° NNE 09:46:05 10° ESE daylight
15 Jun - 11:32:25 10° WNW 11:41:23 52° SW 11:50:33 10° SSE daylight
15 Jun - 13:40:43 10° W 13:44:46 13° WSW 13:48:52 10° SSW daylight
16 Jun - 02:51:35 10° S 02:59:24 30° SE 03:07:06 10° ENE visible
16 Jun - 04:54:05 10° SW 05:03:29 83° SSE 05:12:50 10° ENE visible
16 Jun - 06:59:44 10° W 07:08:59 62° N 07:18:16 10° ENE visible
16 Jun - 09:05:33 10° WNW 09:14:53 73° NNE 09:24:22 10° ESE daylight
16 Jun - 11:10:45 10° WNW 11:19:45 54° SW 11:28:58 10° SE daylight
16 Jun - 13:18:36 10° W 13:23:12 15° WSW 13:27:51 10° SSW daylight
17 Jun - 02:30:10 10° S 02:37:49 29° SE 02:45:21 10° ENE visible
17 Jun - 04:32:26 10° SW 04:41:51 80° SSE 04:51:10 10° ENE visible
17 Jun - 06:38:02 10° W 06:47:17 63° N 06:56:34 10° ENE visible
17 Jun - 08:43:52 10° WNW 08:53:12 72° NNE 09:02:39 10° ESE visible
17 Jun - 10:49:05 10° WNW 10:58:08 57° SW 11:07:23 10° SE daylight
17 Jun - 12:56:35 10° W 13:01:38 16° SW 13:06:45 10° SSW daylight
18 Jun - 02:08:45 10° S 02:16:14 27° SE 02:23:35 10° ENE visible
18 Jun - 04:10:48 10° SW 04:20:12 78° SSE 04:29:30 10° ENE visible
18 Jun - 06:16:19 10° W 06:25:36 64° N 06:34:52 10° ENE visible
18 Jun - 08:22:12 10° WNW 08:31:31 71° NNE 08:40:57 10° E visible
18 Jun - 10:27:25 10° WNW 10:36:31 59° SW 10:45:48 10° SE daylight
18 Jun - 12:34:37 10° W 12:40:04 17° SW 12:45:36 10° SSW daylight
19 Jun - 01:47:22 10° S 01:54:39 25° SE 02:01:49 10° ENE visible
19 Jun - 03:49:09 10° SW 03:58:34 75° SSE 04:07:51 10° ENE visible
19 Jun - 05:54:37 10° W 06:03:54 64° N 06:13:11 10° ENE visible
19 Jun - 08:00:32 10° WNW 08:09:50 69° NNE 08:19:14 10° E visible
19 Jun - 10:05:45 10° WNW 10:14:53 62° SW 10:24:12 10° SE daylight
19 Jun - 12:12:41 10° W 12:18:30 18° SW 12:24:24 10° SSW daylight
20 Jun - 01:26:00 10° S 01:33:04 24° SE 01:40:02 10° E visible
20 Jun - 03:27:31 10° SW 03:36:56 73° SSE 03:46:11 10° ENE visible
20 Jun - 05:32:54 10° W 05:42:12 65° N 05:51:29 10° ENE visible
20 Jun - 07:38:51 10° WNW 07:48:09 68° NNE 07:57:31 10° E visible
20 Jun - 09:44:05 10° WNW 09:53:16 65° SW 10:02:35 10° SE daylight
20 Jun - 11:50:48 10° W 11:56:55 20° SW 12:03:09 10° SSW daylight
21 Jun - 01:04:39 10° S 01:11:29 23° SE 01:18:13 10° E visible
21 Jun - 03:05:54 10° SW 03:15:18 70° SE 03:24:32 10° ENE visible
21 Jun - 05:11:12 10° W 05:20:32 66° NNW 05:29:48 10° ENE visible
21 Jun - 07:17:10 10° WNW 07:26:28 67° NNE 07:35:49 10° E visible
21 Jun - 09:22:26 10° WNW 09:31:38 67° SW 09:40:59 10° SE daylight
21 Jun - 11:28:56 10° W 11:35:21 21° SW 11:41:51 10° S daylight
22 Jun - 00:43:21 10° S 00:49:55 21° SE 00:56:24 10° E daylight
22 Jun - 02:44:16 10° SW 02:53:39 67° SE 03:02:52 10° ENE visible
22 Jun - 04:49:28 10° W 04:58:50 67° NNW 05:08:08 10° ENE visible
22 Jun - 06:55:29 10° WNW 07:04:47 66° NNE 07:14:06 10° E visible
22 Jun - 09:00:46 10° WNW 09:10:00 70° SW 09:19:21 10° SE daylight
22 Jun - 11:07:07 10° W 11:13:47 22° SW 11:20:34 10° S daylight
